Temp
87 94 100 94 77 84 75 78 89 84 83 91 89 84 81 84 79 66 89 84 84 86 89 88 83 84 84 83 83 84 84 84 84 84 84 84 84 84 84 84 84 84 84 84 84 84 85 84 84
104 99 97 93 77 69 73 84 82 86 88 91 88 89 85 80 88 84 85 84 87 89 90 93 82 84 84 84 84 84 84 84 84 84 84 84 84 84 84 84 84 84 84 84 84 84 84 83 83
98 98 95 91 85 75 74 85 86 90 94 91 84 86 87 83 91 91 93 91 89 90 93 88 83 83 84 83 84 84 84 84 84 84 84 84 84 84 84 84 84 84 84 85 84 84 84 83 83
102 98 98 87 80 85 85 87 90 90 92 94 89 77 89 95 94 96 96 97 93 98 95 85 84 84 84 84 84 84 84 84 84 84 84 84 84 85 84 84 84 84 84 84 84 84 83 82 83
101 94 88 83 82 87 91 93 93 90 90 92 92 80 80 87 96 98 98 101 98 98 93 90 83 84 84 84 84 84 84 84 84 84 84 85 85 85 85 84 84 84 84 84 84 84 84 84 83
92 97 84 79 82 88 91 94 94 91 90 90 88 84 84 93 91 96 101 102 102 97 97 92 84 84 84 84 84 83 84 84 84 84 84 84 83 84 84 84 84 84 84 84 84 84 84 84 83
95 94 86 84 82 84 89 97 93 91 90 89 93 82 87 91 94 97 98 101 101 100 97 93 92 86 84 84 83 84 84 84 83 84 84 84 84 84 83 82 84 84 84 84 84 84 83 84 84
102 97 87 87 82 80 92 94 96 93 89 99 98 82 83 92 97 99 98 98 98 95 95 86 90 88 86 88 84 84 84 84 83 84 84 84 84 84 84 84 82 83 84 84 84 84 84 84 84
106 90 83 86 84 84 93 90 96 98 93 95 96 94 95 97 98 98 96 96 96 96 97 97 97 96 96 96 89 85 84 84 84 85 84 86 87 90 88 83 79 81 82 84 84 84 84 84 84
97 89 85 93 95 90 92 92 93 92 90 90 94 98 97 97 96 95 94 93 93 91 97 100 101 98 96 99 91 91 93 92 91 88 90 89 92 92 87 86 83 82 82 84 84 84 84 85 90
100 87 93 93 96 98 93 92 95 91 89 92 90 92 94 95 96 96 96 96 96 94 95 97 97 96 97 96 96 96 91 87 93 91 92 90 89 83 79 82 84 82 84 87 88 88 88 91 92
92 96 96 94 94 95 92 96 93 94 95 98 97 96 95 94 96 97 97 98 97 96 97 98 95 90 93 95 95 97 93 88 87 94 92 91 85 86 88 89 85 83 87 86 80 82 88 91 91
95 95 97 97 96 96 95 92 93 92 98 99 98 95 95 96 97 100 101 100 98 95 97 98 96 91 91 90 94 94 95 95 92 93 89 82 92 88 90 88 82 92 88 85 88 90 91 88 84
98 98 96 97 95 95 93 93 94 93 99 96 95 95 96 97 98 99 99 99 97 97 98 100 97 93 94 91 91 93 94 93 96 94 87 93 85 89 91 91 92 86 89 95 87 87 85 86 90
99 93 95 95 95 92 96 86 89 95 96 93 94 95 96 97 99 98 99 99 99 99 100 99 98 97 93 93 92 95 97 98 95 91 95 93 91 90 88 91 85 85 93 91 92 91 92 82 84
95 96 85 93 95 93 93 80 91 96 94 92 93 94 95 97 99 99 100 100 100 100 97 98 101 99 95 94 94 96 95 96 96 86 87 90 88 87 87 89 84 90 96 96 95 93 88 92 82
94 82 86 88 96 94 92 84 92 96 95 92 93 94 95 96 98 99 100 100 100 100 97 97 98 100 96 93 95 96 96 97 98 98 86 90 91 91 91 83 88 92 97 96 94 83 85 83 80
86 86 87 86 93 93 91 88 91 95 95 93 94 94 93 95 97 99 100 102 101 100 97 96 97 97 95 95 93 96 97 98 100 97 95 94 92 93 92 95 93 93 97 93 94 88 93 83 83
92 90 87 90 93 92 91 91 90 93 94 93 95 94 95 96 100 101 101 101 101 99 96 95 95 94 94 94 93 93 94 96 98 96 95 94 94 93 92 85 93 94 87 88 91 91 88 86 83
92 90 89 91 93 92 92 90 93 93 93 95 95 95 95 96 99 99 100 101 100 98 97 95 94 93 93 96 95 96 96 95 91 96 95 95 94 93 93 92 91 92 90 90 90 89 89 85 87
93 91 90 87 92 96 92 88 88 93 94 96 98 99 99 97 97 100 100 100 101 98 97 95 93 93 92 94 95 93 93 93 95 96 95 95 94 94 93 92 91 91 91 90 89 89 89 84 92
88 98 94 89 87 83 94 63 66 91 89 91 95 98 99 98 100 102 103 101 102 100 100 98 95 93 93 93 94 91 91 92 96 97 96 97 94 94 94 92 91 90 94 91 91 92 91 87 85
91 97 93 92 88 89 89 84 82 92 87 90 95 97 100 101 102 102 104 103 104 103 101 99 95 93 93 92 91 93 89 95 96 96 94 92 93 93 94 93 91 89 92 91 90 90 87 92 88
99 95 93 93 90 79 88 87 74 71 90 94 97 99 100 102 103 104 105 106 104 105 103 101 95 92 92 92 90 90 91 91 94 94 94 95 89 91 92 93 90 90 92 90 90 89 88 87 88
95 90 78 75 77 76 92 87 78 69 89 99 99 100 102 104 104 104 103 104 103 103 102 100 95 91 91 91 91 90 90 90 90 90 94 93 91 90 87 91 90 89 89 90 90 87 88 87 87
90 90 80 68 74 79 90 79 89 93 102 101 102 105 104 104 106 105 104 104 103 102 101 99 95 91 91 91 90 90 90 93 93 93 95 97 98 86 93 93 93 92 90 90 89 90 90 89 87
91 85 95 87 89 83 83 88 97 100 99 100 101 103 102 104 105 106 107 107 105 102 101 99 95 92 91 93 90 90 90 90 94 94 94 96 95 98 94 93 92 91 90 89 88 89 88 88 86
94 98 85 87 71 70 81 83 86 90 95 99 99 101 103 105 105 107 107 107 107 106 104 101 97 93 93 95 93 92 91 90 91 92 91 93 95 95 93 92 92 91 89 89 87 90 88 86 88
89 87 90 92 87 76 74 78 98 95 98 98 100 102 104 105 105 107 107 107 108 106 103 101 98 95 93 95 93 93 92 93 92 92 91 91 92 92 91 90 90 90 90 89 87 87 89 84 85
97 91 93 82 78 86 83 83 103 101 100 100 101 102 103 106 107 107 108 107 107 104 102 100 97 96 94 95 89 90 92 91 92 92 93 94 91 92 91 90 89 89 89 89 86 86 89 85 84
MSLP
1006.65 1006.13 1005.32 1004.64 1003.86 1002.67 1002.89 1003.52 1003.70 1004.64 1005.76 1006.35 1007.21 1008.07 1008.52 1008.31 1008.54 1012.02 1013.78 1015.23 1015.54 1015.34 1015.46 1015.88 1016.23 1016.21 1016.37 1016.38 1016.68 1016.75 1016.95 1017.23 1017.44 1017.48 1017.65 1017.82 1017.79 1017.85 1018.05 1018.03 1018.07 1018.09 1018.05 1018.14 1018.15 1018.19 1018.28 1018.44 1018.52
1004.57 1004.74 1004.53 1002.70 1002.16 1002.54 1002.98 1003.32 1003.73 1004.85 1006.23 1006.94 1007.61 1007.55 1008.32 1008.91 1009.92 1012.32 1013.65 1014.95 1014.85 1014.63 1014.91 1015.53 1016.46 1016.49 1016.71 1016.87 1017.07 1017.17 1017.30 1017.25 1017.75 1017.91 1017.99 1018.17 1018.15 1018.07 1018.17 1018.34 1018.32 1018.36 1018.32 1018.31 1018.29 1018.36 1018.44 1018.75 1018.85
1005.10 1004.47 1002.21 1000.95 1001.38 1002.03 1002.89 1003.45 1004.42 1004.97 1005.21 1006.33 1007.75 1008.90 1008.75 1009.74 1010.54 1011.38 1013.14 1014.03 1014.32 1014.33 1014.65 1016.20 1016.68 1016.75 1017.05 1017.24 1017.36 1017.36 1017.58 1017.57 1017.82 1018.08 1018.26 1018.42 1018.31 1018.43 1018.39 1018.44 1018.53 1018.50 1018.58 1018.50 1018.34 1018.51 1018.59 1018.81 1018.98
1003.71 1002.88 1001.56 1000.68 1001.76 1002.77 1003.32 1003.92 1004.32 1004.86 1005.54 1006.29 1007.80 1009.32 1009.87 1010.09 1010.43 1011.59 1012.51 1013.17 1013.67 1013.88 1015.19 1016.67 1016.86 1016.90 1017.19 1017.39 1017.60 1017.62 1017.66 1017.82 1018.03 1018.21 1018.33 1018.47 1018.50 1018.56 1018.69 1018.65 1018.59 1018.62 1018.65 1018.68 1018.59 1018.55 1018.82 1019.00 1019.03
1003.57 1001.84 1001.01 1001.54 1002.32 1003.05 1003.63 1003.79 1004.05 1004.34 1005.21 1005.83 1007.21 1009.39 1010.62 1011.55 1011.33 1011.98 1012.23 1012.34 1012.74 1013.75 1015.69 1016.63 1017.07 1017.12 1017.38 1017.61 1017.76 1017.83 1017.83 1018.01 1018.19 1018.35 1018.54 1018.56 1018.61 1018.57 1018.68 1018.71 1018.65 1018.65 1018.62 1018.67 1018.65 1018.69 1018.84 1018.86 1019.09
1001.99 1000.18 1000.56 1001.83 1002.85 1003.52 1003.83 1004.07 1003.96 1004.80 1005.78 1006.32 1007.41 1009.20 1010.57 1011.96 1012.26 1012.10 1011.93 1011.96 1012.67 1013.99 1015.04 1016.36 1017.27 1017.39 1017.50 1017.71 1017.96 1018.08 1018.02 1018.20 1018.23 1018.43 1018.42 1018.55 1018.71 1018.70 1018.76 1018.76 1018.82 1018.64 1018.54 1018.63 1018.68 1018.74 1018.84 1019.05 1019.13
1000.57 999.94 1000.79 1001.87 1003.14 1003.85 1004.01 1003.96 1004.12 1004.89 1005.54 1006.49 1007.64 1008.75 1010.68 1011.70 1012.45 1012.49 1012.41 1012.65 1013.21 1013.47 1014.59 1016.04 1016.76 1017.42 1017.62 1017.67 1018.01 1018.15 1018.26 1018.30 1018.38 1018.51 1018.57 1018.63 1018.77 1018.77 1018.78 1018.83 1018.83 1018.77 1018.65 1018.62 1018.76 1018.79 1019.02 1019.20 1019.30
1000.09 1000.02 1000.94 1001.79 1003.04 1004.15 1004.51 1004.55 1004.65 1004.91 1005.94 1006.67 1007.31 1008.60 1009.93 1011.21 1012.02 1012.43 1012.84 1013.27 1013.73 1014.46 1015.02 1016.15 1016.45 1016.99 1017.17 1017.51 1017.97 1018.09 1018.17 1018.24 1018.41 1018.44 1018.54 1018.56 1018.56 1018.45 1018.61 1018.75 1018.87 1018.91 1018.77 1018.73 1018.86 1018.91 1019.02 1019.24 1019.37
1000.88 1000.34 1001.50 1002.07 1003.14 1004.29 1004.46 1004.76 1005.37 1006.04 1006.41 1006.66 1007.04 1008.09 1009.46 1011.04 1011.65 1012.15 1012.65 1013.01 1013.56 1014.21 1014.56 1014.60 1015.09 1015.65 1015.68 1016.22 1017.61 1017.97 1018.19 1018.15 1018.18 1018.25 1018.33 1018.22 1017.86 1017.69 1018.02 1018.51 1018.57 1018.90 1018.94 1018.83 1018.91 1018.99 1019.03 1019.17 1019.27
999.54 1001.07 1002.45 1002.79 1003.04 1003.92 1004.43 1004.94 1005.39 1005.60 1006.23 1006.86 1007.08 1008.19 1009.75 1010.82 1011.27 1011.72 1012.25 1012.87 1013.63 1014.13 1013.77 1013.65 1013.95 1014.98 1015.73 1015.43 1016.94 1017.02 1017.17 1017.28 1017.35 1017.52 1017.67 1017.53 1017.25 1017.10 1017.68 1018.08 1018.54 1018.77 1018.90 1018.83 1018.89 1018.99 1019.07 1019.03 1018.47
1000.46 1001.98 1002.85 1003.52 1003.54 1003.58 1004.29 1004.89 1005.07 1005.09 1005.13 1006.43 1007.31 1008.57 1009.75 1010.45 1010.91 1011.19 1011.55 1012.12 1012.69 1013.90 1014.13 1013.82 1014.51 1015.22 1015.41 1015.47 1015.89 1016.01 1016.67 1017.09 1016.83 1017.31 1017.35 1017.61 1017.24 1017.61 1018.11 1018.20 1018.22 1018.52 1018.68 1018.53 1018.58 1018.73 1018.39 1017.94 1017.89
1001.39 1002.21 1002.95 1003.62 1004.07 1003.97 1003.85 1004.43 1004.66 1004.91 1005.03 1006.24 1007.47 1008.67 1009.49 1010.05 1010.39 1010.56 1010.94 1011.53 1012.28 1013.27 1013.68 1014.20 1015.12 1016.03 1015.76 1015.96 1016.09 1015.73 1016.18 1016.87 1016.64 1016.40 1017.20 1017.32 1017.61 1017.56 1017.61 1017.52 1018.02 1018.16 1018.16 1018.08 1018.31 1018.11 1017.88 1017.84 1017.73
1001.29 1002.28 1002.88 1003.58 1003.89 1003.97 1004.45 1004.32 1004.70 1005.36 1005.77 1006.83 1007.82 1008.77 1009.29 1009.66 1009.99 1010.18 1010.59 1011.28 1012.23 1013.04 1013.54 1014.03 1014.76 1015.81 1016.12 1016.42 1016.04 1015.81 1015.74 1016.00 1016.50 1016.32 1016.93 1017.65 1017.06 1017.48 1017.52 1017.18 1017.37 1016.82 1017.19 1017.18 1017.08 1017.36 1017.48 1017.87 1018.15
1001.49 1001.92 1002.81 1003.18 1003.65 1004.04 1003.88 1004.38 1004.66 1005.73 1006.33 1007.18 1008.05 1008.61 1009.03 1009.21 1009.57 1009.94 1010.37 1011.04 1011.95 1012.66 1013.15 1013.63 1014.48 1015.44 1015.92 1016.35 1016.35 1016.11 1015.94 1016.01 1015.96 1016.26 1016.76 1017.01 1017.13 1017.23 1017.24 1016.91 1016.36 1016.55 1016.73 1016.66 1017.41 1017.59 1017.88 1017.79 1017.57
1001.39 1001.70 1002.42 1002.91 1003.39 1003.79 1003.68 1004.45 1004.36 1005.74 1006.51 1007.25 1007.91 1008.37 1008.68 1008.93 1009.39 1009.86 1010.36 1010.88 1011.71 1012.28 1012.79 1013.34 1014.09 1014.84 1015.68 1015.91 1016.35 1015.55 1015.66 1015.44 1015.78 1016.09 1016.54 1016.94 1017.16 1017.30 1017.41 1016.84 1016.54 1016.63 1016.84 1017.15 1017.03 1017.15 1016.97 1017.42 1017.59
1000.42 1000.52 1001.06 1002.28 1002.77 1003.55 1003.71 1003.79 1004.64 1005.74 1006.37 1007.05 1007.64 1008.13 1008.56 1008.86 1009.26 1009.87 1010.39 1010.79 1011.49 1011.89 1012.71 1013.29 1013.65 1014.29 1015.29 1015.49 1015.89 1015.32 1015.35 1015.38 1015.40 1016.09 1016.39 1016.94 1017.31 1017.45 1017.42 1016.81 1016.74 1016.52 1016.10 1016.27 1016.39 1016.78 1017.03 1017.24 1017.40
999.27 1000.02 1000.30 1001.54 1002.33 1002.62 1003.13 1003.35 1004.53 1005.40 1005.90 1006.60 1007.26 1007.80 1008.25 1008.62 1009.04 1009.71 1010.24 1010.65 1011.25 1011.71 1012.76 1013.35 1013.77 1013.87 1014.89 1015.49 1015.62 1015.56 1015.49 1015.59 1015.28 1015.25 1016.00 1016.68 1016.95 1017.03 1016.78 1016.73 1016.47 1016.68 1015.86 1015.83 1016.01 1016.91 1017.18 1017.30 1017.92
997.76 999.07 1000.31 1000.68 1001.67 1002.15 1002.00 1002.83 1004.07 1004.85 1005.30 1006.03 1006.65 1007.33 1007.84 1008.23 1008.53 1009.35 1009.89 1010.34 1010.99 1011.79 1012.83 1013.43 1013.85 1014.06 1014.74 1015.30 1015.84 1015.48 1015.28 1015.26 1014.99 1015.19 1015.53 1016.19 1016.40 1016.51 1016.51 1015.83 1016.44 1016.49 1015.89 1016.00 1016.36 1017.02 1016.97 1017.57 1018.09
998.83 999.14 999.75 1000.76 1001.48 1001.27 1001.21 1001.65 1003.40 1004.24 1004.63 1005.21 1005.79 1006.61 1007.18 1007.64 1008.21 1008.77 1009.51 1010.07 1010.66 1011.55 1012.56 1013.34 1013.70 1014.31 1014.84 1015.22 1015.35 1015.38 1014.98 1014.99 1014.95 1015.08 1015.79 1016.20 1016.32 1016.48 1016.58 1016.40 1016.38 1016.32 1016.42 1016.89 1017.10 1017.31 1017.61 1017.86 1018.46
999.48 999.03 998.91 1000.26 1001.01 1000.97 1000.70 1001.24 1002.18 1003.77 1004.03 1004.21 1004.81 1005.63 1006.35 1006.98 1007.42 1008.16 1008.96 1009.48 1010.25 1011.19 1012.08 1012.96 1013.57 1014.20 1014.77 1014.79 1015.01 1014.97 1014.86 1014.84 1014.94 1014.75 1015.60 1016.00 1016.19 1016.48 1016.30 1016.36 1016.37 1016.45 1016.35 1016.94 1017.40 1017.42 1016.96 1017.83 1017.95
999.13 998.67 998.53 999.54 1000.19 1000.13 1000.48 1000.63 1001.08 1002.61 1003.67 1003.64 1003.95 1004.54 1005.26 1005.95 1006.57 1007.14 1008.01 1008.77 1009.63 1010.52 1011.51 1012.43 1013.34 1013.95 1014.53 1014.63 1014.97 1015.43 1015.49 1015.46 1015.28 1015.14 1015.35 1015.61 1016.06 1016.28 1016.47 1016.47 1016.65 1016.80 1016.76 1016.66 1017.45 1017.57 1016.96 1017.05 1017.01
998.53 998.51 998.81 999.84 999.94 998.76 999.68 1001.89 1003.79 1001.88 1002.88 1002.94 1003.15 1003.55 1004.14 1005.01 1005.69 1006.10 1006.92 1008.07 1008.87 1009.87 1010.90 1011.81 1012.89 1013.59 1014.28 1014.67 1014.49 1014.93 1014.98 1014.73 1014.52 1014.63 1014.67 1015.11 1015.76 1016.10 1016.26 1016.51 1016.76 1016.93 1016.28 1016.63 1017.20 1017.40 1017.15 1017.33 1016.85
998.65 998.73 999.22 999.41 999.64 998.90 998.46 999.62 1002.19 1001.94 1002.39 1001.99 1002.06 1002.55 1003.14 1003.96 1004.72 1005.38 1006.03 1006.99 1007.88 1009.02 1009.96 1011.07 1012.27 1013.17 1013.76 1014.39 1014.64 1014.75 1015.09 1014.55 1014.73 1014.81 1014.96 1015.47 1015.71 1016.04 1016.15 1016.32 1016.79 1017.07 1016.74 1016.94 1017.27 1017.39 1017.67 1017.16 1017.08
999.09 999.04 999.55 999.50 999.09 998.26 997.78 998.70 1002.68 1003.34 1000.57 1000.39 1000.97 1001.18 1002.21 1002.89 1003.82 1004.66 1005.29 1005.88 1007.07 1008.09 1009.11 1010.15 1011.51 1012.61 1013.45 1013.96 1014.64 1014.67 1014.60 1014.77 1014.47 1014.73 1014.80 1014.95 1014.88 1015.44 1015.79 1015.99 1016.67 1016.84 1016.65 1017.09 1017.29 1017.57 1017.77 1017.79 1017.54
999.15 999.25 998.84 998.45 997.93 997.26 996.72 997.83 1000.60 1002.61 1000.66 999.55 999.36 999.89 1000.97 1001.93 1003.05 1003.87 1004.59 1005.19 1006.21 1007.31 1008.46 1009.57 1010.91 1012.11 1012.97 1013.46 1013.89 1014.35 1014.61 1014.78 1014.94 1015.21 1014.85 1014.75 1014.67 1014.83 1015.37 1015.83 1016.43 1016.79 1016.91 1016.91 1017.07 1017.57 1017.63 1017.84 1017.80
998.91 998.88 998.12 997.33 996.37 995.81 996.14 997.13 998.05 999.13 998.70 999.04 998.75 998.74 1000.15 1001.11 1001.81 1002.83 1003.87 1004.78 1005.76 1006.79 1007.98 1009.25 1010.54 1011.61 1012.33 1012.92 1013.43 1013.90 1014.26 1014.37 1014.55 1014.63 1014.54 1014.24 1014.07 1014.53 1014.93 1015.45 1015.77 1016.14 1016.63 1016.92 1017.09 1017.28 1017.43 1017.45 1017.79
998.22 998.44 998.18 996.98 996.10 995.69 995.73 996.54 996.68 997.08 997.58 998.03 998.34 998.57 999.70 1000.40 1001.09 1001.99 1002.95 1004.02 1005.24 1006.47 1007.74 1008.93 1009.98 1010.99 1011.73 1012.21 1012.77 1013.10 1013.54 1013.86 1013.57 1013.94 1014.31 1014.45 1014.53 1014.29 1014.81 1015.24 1015.77 1016.16 1016.42 1016.67 1016.91 1016.98 1017.13 1017.41 1017.71
998.19 997.62 997.64 997.21 996.63 995.91 995.50 995.83 995.98 996.81 997.08 997.30 998.26 998.56 999.30 1000.03 1000.78 1001.42 1002.23 1003.32 1004.47 1005.84 1007.33 1008.67 1009.53 1010.43 1010.97 1011.21 1011.88 1012.07 1012.50 1013.18 1013.65 1013.82 1014.18 1014.19 1014.23 1014.51 1014.87 1015.28 1015.51 1015.81 1016.15 1016.38 1016.74 1016.55 1016.99 1017.30 1017.30
998.16 997.94 997.40 996.53 996.46 996.10 995.54 995.23 995.03 995.85 996.49 996.94 997.85 998.55 999.03 999.63 1000.41 1000.99 1001.86 1002.96 1003.95 1005.42 1007.14 1008.46 1009.51 1009.94 1010.21 1010.31 1010.75 1011.67 1012.15 1012.53 1013.27 1013.51 1013.82 1014.11 1014.31 1014.55 1014.82 1015.20 1015.38 1015.46 1015.76 1016.08 1016.41 1016.57 1016.43 1017.10 1017.22
996.97 997.13 996.63 996.49 996.47 996.19 995.76 995.16 995.34 996.10 997.12 997.71 998.05 998.94 999.53 999.52 1000.00 1000.81 1001.54 1002.90 1003.81 1005.12 1006.53 1007.68 1008.85 1009.34 1009.89 1010.51 1011.86 1011.97 1012.40 1012.34 1012.66 1013.05 1013.25 1013.65 1013.93 1014.19 1014.46 1014.69 1014.94 1015.09 1015.25 1015.55 1015.90 1016.12 1015.91 1016.44 1016.81
Wind_Speed
12 12 7 5 6 7 15 17 13 21 18 17 16 12 9 15 12 15 19 15 10 10 13 12 12 14 14 14 14 14 15 14 12 12 12 11 11 11 9 10 11 11 11 10 10 10 10 12 12
6 7 8 7 4 10 9 14 19 20 18 16 12 20 20 23 26 22 18 15 15 14 14 15 12 13 13 13 12 12 13 14 11 10 10 8 8 9 9 8 8 9 9 8 6 8 7 11 11
14 8 9 5 12 13 13 16 16 14 12 20 15 16 14 23 23 21 19 19 18 11 15 15 13 13 13 12 10 12 11 12 11 10 9 7 7 5 7 6 5 5 6 5 3 4 6 8 11
7 6 7 13 18 18 15 12 13 14 12 19 23 16 17 14 22 22 24 20 12 18 16 13 13 13 13 12 10 11 11 10 10 8 7 7 6 5 4 4 3 2 2 1 1 3 4 7 8
9 7 11 14 18 17 13 9 10 11 12 14 23 21 15 6 23 19 17 19 19 19 16 14 10 11 12 10 10 9 10 10 8 7 7 5 4 4 3 3 2 1 0 1 3 3 4 4 7
9 4 12 13 15 15 14 7 10 14 10 8 24 20 17 15 17 16 16 15 19 18 18 14 11 12 12 11 10 9 7 6 6 5 5 2 2 3 3 3 3 3 3 2 3 4 4 7 6
7 8 13 15 14 14 11 9 11 12 13 19 21 22 18 21 18 14 11 15 11 14 16 12 12 10 11 10 8 7 7 5 5 4 4 3 3 2 3 4 4 2 3 4 3 4 6 7 7
8 8 13 13 13 13 12 10 10 12 18 18 17 13 21 22 19 17 15 15 12 11 10 12 13 13 13 11 9 8 6 7 6 6 5 5 7 7 6 5 7 5 2 2 5 5 6 9 8
7 6 9 16 14 14 8 12 14 16 14 11 4 18 23 23 20 16 14 14 12 13 15 12 18 15 11 14 11 9 8 8 8 9 7 9 7 11 11 15 13 9 4 4 5 6 8 8 8
5 13 12 9 14 11 8 13 11 11 11 8 17 21 24 22 20 19 17 14 13 7 9 14 13 12 7 7 10 10 10 8 9 6 6 7 2 1 8 11 12 10 7 5 7 7 7 10 9
17 11 10 8 8 11 11 11 6 8 13 13 18 23 22 20 17 17 16 15 14 14 8 6 7 5 9 6 6 5 6 3 6 4 5 2 2 1 4 2 2 4 7 5 9 10 8 7 6
13 10 10 8 3 9 6 9 6 9 12 16 19 22 21 19 17 15 14 14 14 13 13 10 11 7 3 5 5 4 6 6 2 6 4 3 1 2 2 2 5 6 6 7 7 7 3 5 7
12 10 10 9 7 8 4 4 9 9 13 18 20 20 20 18 16 15 13 13 12 11 10 10 12 9 6 3 4 2 4 4 6 3 5 6 3 3 1 3 5 5 6 6 3 1 4 2 7
8 11 10 8 9 6 5 9 8 10 15 18 19 19 17 17 16 13 13 13 13 12 12 12 10 11 9 8 4 4 2 4 3 5 6 4 2 3 1 4 2 3 3 4 8 5 4 5 9
8 13 11 9 8 6 7 9 8 13 15 17 17 16 15 14 14 13 12 13 12 11 13 13 10 13 9 7 7 6 6 6 5 3 5 2 2 3 3 1 5 4 6 4 4 3 2 5 7
10 14 10 8 7 7 8 10 14 15 15 16 16 14 13 13 14 13 13 12 13 12 12 11 9 14 10 8 6 5 4 4 4 4 6 6 4 2 4 3 5 3 3 6 3 2 3 2 4
18 6 8 11 8 8 11 12 15 15 15 15 15 15 14 14 15 14 14 12 14 11 12 10 9 12 12 9 6 5 4 3 3 3 6 8 4 6 5 3 6 3 2 3 4 2 3 3 3
10 14 5 8 11 7 9 13 15 16 16 16 16 15 15 15 16 15 15 13 14 12 12 11 11 7 8 8 4 4 3 5 3 2 3 4 6 3 5 5 5 6 1 2 7 6 5 5 4
6 5 4 5 4 8 6 14 15 16 16 17 17 17 17 17 16 17 14 14 13 14 13 13 11 10 8 7 6 6 6 5 4 2 4 1 2 3 3 1 5 6 4 5 2 4 6 3 5
9 9 9 8 2 8 8 6 22 18 18 18 18 18 17 17 18 17 17 16 15 15 15 13 12 11 9 7 5 4 4 4 4 2 4 4 4 2 5 3 3 2 5 4 1 5 2 6 6
12 13 1 4 5 12 8 8 5 21 18 17 17 18 19 19 18 20 19 18 17 16 15 15 14 13 11 10 6 4 4 3 2 5 6 7 4 4 3 3 3 1 6 6 4 5 7 2 3
16 13 3 5 10 10 5 6 11 15 20 19 18 17 18 19 19 18 19 19 17 16 15 14 14 13 12 11 7 7 6 6 6 4 3 3 5 5 4 3 2 3 5 5 4 6 6 5 5
15 6 6 7 12 17 15 10 16 14 17 20 20 20 19 20 19 18 19 19 17 17 16 15 15 14 11 12 10 8 8 6 5 5 3 1 4 5 5 4 2 3 6 5 4 2 5 4 6
15 14 11 13 13 13 16 11 12 9 13 17 19 20 21 19 19 18 16 19 16 16 15 15 15 13 13 12 13 10 8 8 4 4 3 6 4 8 8 5 5 6 2 3 4 3 3 5 7
11 14 11 13 13 13 14 1 17 25 21 7 10 19 21 20 20 17 17 15 17 17 16 13 14 13 13 14 13 13 11 9 7 5 7 6 3 4 8 7 5 5 5 3 4 5 2 4 4
13 16 14 11 13 14 3 5 4 20 10 5 2 15 20 20 19 21 19 17 17 17 16 14 15 14 15 15 13 11 12 9 9 8 7 6 6 2 7 6 5 6 6 6 5 5 6 5 5
16 16 20 23 21 8 4 5 9 8 4 5 8 13 18 20 18 19 20 19 18 17 17 16 16 15 14 15 12 12 12 12 8 6 8 7 6 5 5 4 6 5 7 7 7 7 6 4 6
17 11 15 13 13 15 7 9 3 5 7 11 9 11 18 18 17 17 17 18 17 18 16 15 16 16 16 16 15 15 14 12 10 8 8 7 6 6 3 6 7 8 8 8 8 6 7 6 5
12 13 14 15 13 11 12 8 5 7 3 4 14 10 15 16 17 16 15 15 17 17 17 15 16 17 17 17 13 10 12 12 11 11 10 9 9 8 8 8 8 8 9 9 8 8 4 7 7
17 18 17 9 13 7 10 13 5 9 5 4 12 11 7 7 17 15 16 15 14 16 18 17 16 17 16 12 6 9 10 8 10 11 11 11 10 10 10 9 10 10 10 10 10 11 9 10 9
Wind_Direction
186 206 237 250 226 82 87 86 111 105 75 65 114 109 87 34 123 116 134 165 190 158 136 135 124 123 122 125 133 130 132 127 128 123 119 119 114 110 105 102 99 96 92 87 87 91 98 102 106
251 228 229 270 138 98 89 89 75 89 105 100 72 89 83 83 94 122 139 173 176 170 147 129 127 126 129 133 134 130 139 137 137 132 126 128 118 116 113 107 106 102 98 99 98 103 99 104 108
258 276 267 35 52 68 85 87 100 112 96 99 96 62 77 103 121 126 124 151 170 171 111 115 130 128 127 130 140 140 142 142 146 146 141 145 131 131 125 119 108 98 90 100 104 108 118 105 117
255 212 233 68 72 79 83 88 115 101 87 97 102 90 98 72 111 126 155 129 134 128 117 130 136 131 135 141 142 142 146 152 157 153 154 162 148 141 140 146 150 125 120 209 153 149 134 122 130
251 268 97 81 74 76 75 104 135 113 109 100 115 123 106 77 113 128 140 145 140 113 123 136 135 137 134 145 149 153 155 159 161 162 180 179 175 159 155 184 173 145 131 225 212 187 143 152 145
274 200 90 83 85 75 84 107 94 92 92 120 109 125 116 140 136 148 151 138 112 139 128 134 136 144 144 144 147 152 146 154 154 170 167 187 139 138 121 199 160 129 110 123 176 163 149 147 157
257 58 98 105 90 71 65 81 96 106 115 116 133 120 129 142 147 145 135 112 126 111 119 133 136 142 147 147 141 152 150 159 119 185 174 158 175 151 149 175 133 114 103 129 146 152 128 141 149
300 93 65 81 88 85 86 86 81 95 104 140 122 130 149 144 155 147 146 136 138 117 134 144 147 164 173 153 156 151 145 151 161 162 162 190 191 172 197 169 53 23 119 153 151 156 142 144 159
270 72 65 58 95 105 104 88 81 109 135 143 142 145 137 145 153 152 152 149 146 155 157 166 163 170 173 134 142 157 164 170 181 182 181 215 204 179 183 137 139 252 277 182 183 176 158 154 173
56 71 70 52 109 116 107 98 129 129 121 137 129 125 138 155 160 159 163 154 158 162 196 161 163 130 155 139 156 177 169 183 189 144 180 243 135 52 59 127 160 202 227 231 191 193 181 190 174
70 100 106 73 38 97 116 132 166 156 136 151 136 144 152 160 168 167 168 164 160 158 205 91 87 120 163 123 191 178 131 216 146 170 218 196 294 40 49 129 169 207 217 231 197 181 214 215 178
107 102 104 95 144 103 77 136 134 36 84 132 144 150 159 167 174 171 171 163 145 173 166 169 146 145 269 138 229 163 154 166 205 153 197 182 76 224 174 171 183 190 200 204 196 208 233 219 238
116 108 117 117 140 112 145 105 112 92 106 129 144 156 163 174 177 174 170 157 158 170 168 165 150 161 178 190 206 171 163 210 156 140 186 145 183 74 286 243 193 171 159 202 136 195 204 180 283
118 114 127 142 123 136 128 121 150 115 124 137 153 163 169 178 178 167 173 162 171 175 163 156 173 159 174 192 188 165 235 140 177 160 138 174 223 122 133 242 181 198 130 82 143 172 183 193 210
162 134 141 157 160 143 137 146 126 134 140 150 163 169 170 174 175 170 177 172 174 182 152 148 174 156 172 173 181 211 182 160 166 110 133 113 297 94 322 292 273 40 110 179 137 190 183 100 242
184 178 161 139 173 127 220 137 130 150 158 162 167 172 171 171 170 168 172 179 162 175 152 156 184 152 169 161 185 204 169 178 177 175 128 151 172 204 254 230 265 65 207 152 134 178 188 333 31
156 262 125 145 188 143 226 122 147 164 169 168 174 177 177 178 168 166 166 180 154 165 161 181 181 172 159 146 191 262 93 251 223 165 120 153 180 188 239 279 93 233 199 351 148 188 223 96 35
105 127 156 87 138 211 203 121 163 175 176 176 182 176 184 185 181 169 167 175 154 155 167 190 172 176 168 156 202 250 192 237 235 217 96 119 185 180 260 100 97 260 226 155 41 357 17 65 89
30 53 143 115 90 259 190 152 170 182 190 180 186 184 190 193 186 173 185 175 168 165 169 183 186 172 184 199 191 204 214 182 218 107 107 177 195 194 247 47 146 254 57 58 57 181 118 117 92
228 250 147 144 165 277 166 230 153 184 198 187 187 183 193 192 193 191 187 186 188 181 176 184 193 180 198 194 202 239 243 198 58 97 129 272 165 188 220 313 142 228 101 125 210 284 229 149 151
233 255 52 41 318 236 243 235 218 168 197 195 196 185 188 193 202 191 190 197 188 185 188 186 192 188 199 237 182 182 295 293 204 204 212 184 203 208 269 153 321 139 296 148 161 234 283 123 151
250 218 221 248 262 292 210 246 256 183 193 194 197 196 188 194 196 196 190 191 192 188 191 193 190 198 198 203 216 202 216 222 207 224 141 126 175 211 227 183 207 236 262 75 166 200 271 245 178
255 13 275 243 262 262 238 261 172 188 194 184 197 195 201 186 193 201 193 183 197 183 187 186 187 194 209 197 240 181 233 204 228 229 88 219 124 222 201 165 199 248 247 122 325 97 240 294 300
253 260 248 251 256 267 273 230 122 326 167 182 189 199 194 193 196 191 200 183 186 180 184 180 180 184 194 195 203 226 205 251 276 196 241 232 203 167 186 180 178 206 241 189 206 190 214 277 333
227 243 242 233 233 250 249 225 140 177 260 117 178 180 195 194 185 190 193 191 177 180 181 180 170 181 191 200 200 210 215 209 229 240 226 270 218 181 159 163 185 202 212 195 232 185 263 214 258
216 233 244 227 245 248 145 176 206 175 107 121 225 168 186 189 190 186 188 185 183 185 181 182 170 183 190 197 202 202 209 214 214 207 260 238 236 102 128 150 217 201 179 214 198 213 228 169 211
219 219 253 269 286 259 214 155 229 162 141 107 134 165 179 185 194 185 187 186 183 183 178 180 173 183 190 192 192 196 202 225 221 231 194 226 263 293 148 171 207 211 202 214 193 238 189 184 206
260 289 220 245 272 283 222 256 249 136 221 141 153 185 177 183 191 189 192 184 181 175 173 179 175 182 184 193 196 200 198 204 220 224 223 253 269 217 233 196 209 201 204 212 213 217 195 202 219
199 240 238 258 223 251 255 249 143 168 190 198 137 204 173 183 186 194 184 185 178 169 154 180 185 180 189 202 199 192 192 194 209 217 218 223 228 240 220 223 225 219 214 213 212 250 185 203 219
229 216 251 226 241 278 314 308 16 87 69 245 149 178 157 211 179 192 174 178 171 172 165 170 187 188 197 198 169 178 199 199 206 222 219 221 223 221 223 217 220 225 222 216 211 218 225 205 217